NOAA 16 DEB

Satellite information

Favourite Embed

Satellite Type and Status

DEBRISIN ORBIT

Key statistics

Satellite NOAA 16 DEB at a glance.

Uptime

8993

Days in orbit

Revolutions

≈ 14.3

Per day

Orbit

SSO

Sun Synchronous Orbit

Inclination

98.8

Latest

Satellite identification and parameters

Extended collection of information and parameters for NOAA 16 DEB.

Object identification

Identified? True

Debris? True

Object name: NOAA 16 DEB

International designator: 2000-055LH

Object number (NORAD): 41428

Object ID (CCSDS): 41428

Country: UNITED STATES OF AMERICA (US)

Current information (Y/N): Y

RCS size: SMALL

Orbital parameters

Period: 100.477 minutes

Inclination: 98.812 deg

SMA: 7159.331 km

Apoapsis: 791.215 km

Periapsis: 771.176 km

RAAN: 233.829 deg

Eccentricy: 0.0013995

Argument of periapsis: 263.7245 deg

Mean anomaly: 96.2345 deg

Mean motion: 14.33158114 rev/day

Mean motion (dot): 0.00007168 rev/day2

B* drag term: 0.0026221 1/REarth

Two-line elements (TLE)

Creation date: May 6, 2025, 3:54 a.m.

Reference frame: TEME

Reference center: EARTH

Epoch: May 5, 2025, 7 p.m. UTC

TLE line 0: 0 NOAA 16 DEB

TLE line 1: 1 41428U 00055LH 25125.79190730 .00007168 00000-0 26221-2 0 9997

TLE line 2: 2 41428 98.8120 233.8290 0013995 263.7245 96.2345 14.33158114475873

Live tracking on map

Real-time ground track for satellite NOAA 16 DEB.

In-orbit conjunctions

A list of the most updated potential collisions computed for object NOAA 16 DEB.

Target Orbit TCA Probability of collision Miss distance Type
CZ-6A DEB LEO 2025-02-25 16:26:47 0.0001065033 711.0 (m) DEBRIS
CZ-6A DEB LEO 2025-02-21 01:38:24 0.0003815208 85.0 (m) DEBRIS
CZ-6A DEB LEO 2025-01-12 14:35:52 0.000102148 293.0 (m) DEBRIS

Associated space launch

The NOAA K, L and M POES satellites begin the fifth generation of improved environmental monitoring in support of NOAA missions. The instrument payload has significant improvements and additions/deletions. The instrument changes have effected the spacecraft subsystems and data formats.

NOAA 16 DEB was lifted into orbit during the mission ‘Titan II SLV | NOAA 16’, on board a Titan II SLV space rocket.

The launch took place on Sept. 21, 2000, 10:22 a.m. from Space Launch Complex 4W.

For more information about the launch, click the button.

Launch to space Titan II SLV | NOAA 16
Titan II SLV | NOAA 16

Agency: N/A

Status: Launch Successful

Launch date: Sept. 21, 2000, 10:22 a.m. UTC

Rocket: Titan II SLV

Launch pad: Space Launch Complex 4W

Location: Vandenberg SFB, CA, USA

...

Latest news about this satellite

There are no fresh news available about this satellite. Check back as we update our databases every day.


Newsletter sign-up

Weekly statistics, charts and insights to help you stay on top of the space industry.